^^

New Milford Station Historical Data

 
Daily Summary for November 17, 2019 Units:  English    Metric   Both
Daily Weekly Monthly Yearly Custom
  Current: High: Low: Average:
Temperature: 22.6 °F 23.7 °F 20.7 °F 21.9 °F
Dew Point: 17.9 °F 17.9 °F 15.6 °F 16.3 °F
Humidity: 82% 83% 73% 79%
Wind Speed: 0mph 0mph 0mph 0mph
Wind Gust: 0mph 1mph - -
WindCalm - - North
Pressure: 30.38 in 30.41 in 30.38 in -
Precipitation: 0 in      
Historical Graphs
 
 
Tabular Data for November 17, 2019
Time Temperature Dew Point Pressure Wind Wind Speed Wind Gust Humidity Rainfall Rate (Hourly) solar
00:00 23.7 °F 16.9 °F 30.40 in Calm     75% 0 in WeatherDisplay:10.37 W/m2
00:05 23.6 °F 16.6 °F 30.41 in Calm     74% 0 in WeatherDisplay:10.37 W/m2
00:10 23.6 °F 16.5 °F 30.41 in Calm     74% 0 in WeatherDisplay:10.37 W/m2
00:15 23.5 °F 16.8 °F 30.41 in Calm     75% 0 in WeatherDisplay:10.37 W/m2
00:20 23.6 °F 16.5 °F 30.41 in Calm     74% 0 in WeatherDisplay:10.37 W/m2
00:25 23.4 °F 16.6 °F 30.41 in Calm     75% 0 in WeatherDisplay:10.37 W/m2
00:30 23.3 °F 16.3 °F 30.41 in Calm     74% 0 in WeatherDisplay:10.37 W/m2
00:35 23.3 °F 16.2 °F 30.41 in Calm     74% 0 in WeatherDisplay:10.37 W/m2
00:40 23.2 °F 16.2 °F 30.41 in Calm     74% 0 in WeatherDisplay:10.37 W/m2
00:45 23.3 °F 16.2 °F 30.41 in Calm     74% 0 in WeatherDisplay:10.37 W/m2
00:50 23.1 °F 16 °F 30.41 in Calm     74% 0 in WeatherDisplay:10.37 W/m2
00:55 23.2 °F 15.8 °F 30.41 in Calm     73% 0 in WeatherDisplay:10.37 W/m2
01:00 23 °F 15.6 °F 30.41 in Calm     73% 0 in WeatherDisplay:10.37 W/m2
01:05 23 °F 15.6 °F 30.41 in Calm     73% 0 in WeatherDisplay:10.37 W/m2
01:10 22.9 °F 15.6 °F 30.41 in Calm     73% 0 in WeatherDisplay:10.37 W/m2
01:15 22.7 °F 16 °F 30.40 in Calm     75% 0 in WeatherDisplay:10.37 W/m2
01:20 22.5 °F 16.1 °F 30.40 in Calm     76% 0 in WeatherDisplay:10.37 W/m2
01:25 22.3 °F 15.9 °F 30.40 in Calm     76% 0 in WeatherDisplay:10.37 W/m2
01:30 22.3 °F 16.2 °F 30.39 in Calm     77% 0 in WeatherDisplay:10.37 W/m2
01:35 22.2 °F 16.1 °F 30.39 in Calm     77% 0 in WeatherDisplay:10.37 W/m2
01:40 22 °F 15.9 °F 30.40 in Calm     77% 0 in WeatherDisplay:10.37 W/m2
01:45 22 °F 15.9 °F 30.40 in Calm     77% 0 in WeatherDisplay:10.37 W/m2
01:50 22 °F 15.9 °F 30.40 in Calm     77% 0 in WeatherDisplay:10.37 W/m2
01:55 22 °F 15.9 °F 30.40 in Calm     77% 0 in WeatherDisplay:10.37 W/m2
02:00 21.8 °F 16 °F 30.39 in Calm     78% 0 in WeatherDisplay:10.37 W/m2
02:05 21.4 °F 15.9 °F 30.39 in Calm     79% 0 in WeatherDisplay:10.37 W/m2
02:10 21.4 °F 15.9 °F 30.39 in Calm     79% 0 in WeatherDisplay:10.37 W/m2
02:15 21.3 °F 15.8 °F 30.39 in Calm     79% 0 in WeatherDisplay:10.37 W/m2
02:20 21.4 °F 16.2 °F 30.39 in Calm     80% 0 in WeatherDisplay:10.37 W/m2
02:25 21.4 °F 15.9 °F 30.39 in Calm     79% 0 in WeatherDisplay:10.37 W/m2
02:30 21.2 °F 15.7 °F 30.39 in Calm     79% 0 in WeatherDisplay:10.37 W/m2
02:35 21.2 °F 16 °F 30.39 in Calm     80% 0 in WeatherDisplay:10.37 W/m2
02:40 21.3 °F 16.1 °F 30.39 in Calm     80% 0 in WeatherDisplay:10.37 W/m2
02:45 21.1 °F 15.9 °F 30.39 in Calm     80% 0 in WeatherDisplay:10.37 W/m2
02:50 21 °F 15.8 °F 30.39 in Calm     80% 0 in WeatherDisplay:10.37 W/m2
02:55 21 °F 15.8 °F 30.39 in Calm     80% 0 in WeatherDisplay:10.37 W/m2
03:00 20.9 °F 16 °F 30.39 in Calm     81% 0 in WeatherDisplay:10.37 W/m2
03:05 20.9 °F 16 °F 30.39 in Calm   1 mph 81% 0 in WeatherDisplay:10.37 W/m2
03:10 20.8 °F 15.6 °F 30.39 in Calm     80% 0 in WeatherDisplay:10.37 W/m2
03:15 20.8 °F 16.2 °F 30.39 in Calm     82% 0 in WeatherDisplay:10.37 W/m2
03:20 20.8 °F 16.2 °F 30.39 in Calm     82% 0 in WeatherDisplay:10.37 W/m2
03:25 20.8 °F 16.1 °F 30.38 in Calm     82% 0 in WeatherDisplay:10.37 W/m2
03:30 20.7 °F 16.1 °F 30.38 in Calm     82% 0 in WeatherDisplay:10.37 W/m2
03:35 20.7 °F 16.3 °F 30.38 in Calm     83% 0 in WeatherDisplay:10.37 W/m2
03:40 20.8 °F 16.5 °F 30.38 in Calm     83% 0 in WeatherDisplay:10.37 W/m2
03:45 20.9 °F 16.6 °F 30.38 in Calm     83% 0 in WeatherDisplay:10.37 W/m2
03:50 20.9 °F 16.3 °F 30.38 in Calm     82% 0 in WeatherDisplay:10.37 W/m2
03:55 20.9 °F 16.3 °F 30.38 in Calm     82% 0 in WeatherDisplay:10.37 W/m2
04:00 20.9 °F 16.2 °F 30.38 in Calm     82% 0 in WeatherDisplay:10.37 W/m2
04:05 20.8 °F 16.4 °F 30.38 in Calm     83% 0 in WeatherDisplay:10.37 W/m2
04:10 20.8 °F 16.4 °F 30.38 in Calm     83% 0 in WeatherDisplay:10.37 W/m2
04:15 20.8 °F 16.2 °F 30.38 in Calm     82% 0 in WeatherDisplay:10.37 W/m2
04:20 21 °F 16.4 °F 30.38 in Calm     82% 0 in WeatherDisplay:10.37 W/m2
04:25 21.1 °F 16.7 °F 30.38 in Calm     83% 0 in WeatherDisplay:10.37 W/m2
04:30 21.3 °F 16.9 °F 30.38 in Calm     83% 0 in WeatherDisplay:10.37 W/m2
04:35 21.3 °F 17 °F 30.38 in Calm     83% 0 in WeatherDisplay:10.37 W/m2
04:40 21.5 °F 17.1 °F 30.38 in Calm     83% 0 in WeatherDisplay:10.37 W/m2
04:45 21.6 °F 17 °F 30.38 in Calm     82% 0 in WeatherDisplay:10.37 W/m2
04:50 21.7 °F 17.3 °F 30.38 in Calm     83% 0 in WeatherDisplay:10.37 W/m2
04:55 22 °F 17.6 °F 30.38 in Calm     83% 0 in WeatherDisplay:10.37 W/m2
05:00 22.1 °F 17.7 °F 30.38 in Calm     83% 0 in WeatherDisplay:10.37 W/m2
05:05 22.3 °F 17.6 °F 30.38 in Calm     82% 0 in WeatherDisplay:10.37 W/m2
05:10 22.5 °F 17.8 °F 30.38 in Calm     82% 0 in WeatherDisplay:10.37 W/m2
05:15 22.6 °F 17.9 °F 30.38 in Calm     82% 0 in WeatherDisplay:10.37 W/m2
Compliments of Weather Underground - 1.25 mb